Year,Month,Day,Hour,Minute,Value (Times are PST for temperature in C)
2011,02,22,00,00,3.30
2011,02,22,00,01,3.20
2011,02,22,00,02,3.20
2011,02,22,00,03,3.20
2011,02,22,00,04,3.20
2011,02,22,00,05,3.20
2011,02,22,00,06,3.10
2011,02,22,00,07,3.10
2011,02,22,00,08,3.10
2011,02,22,00,09,3.10
2011,02,22,00,10,3.10
2011,02,22,00,11,3.10
2011,02,22,00,12,3.10
2011,02,22,00,13,3.10
2011,02,22,00,14,3.10
2011,02,22,00,15,3.10
2011,02,22,00,16,3.10
2011,02,22,00,17,3.10
2011,02,22,00,18,3.10
2011,02,22,00,19,3.10
2011,02,22,00,20,3.10
2011,02,22,00,21,3.10
2011,02,22,00,22,3.10
2011,02,22,00,23,3.10
2011,02,22,00,24,3.10
2011,02,22,00,25,3.10
2011,02,22,00,26,3.10
2011,02,22,00,27,3.10
2011,02,22,00,28,3.10
2011,02,22,00,29,3.10
2011,02,22,00,30,3.10
2011,02,22,00,31,3.10
2011,02,22,00,32,3.10
2011,02,22,00,33,3.10
2011,02,22,00,34,3.10
2011,02,22,00,35,3.10
2011,02,22,00,36,3.10
2011,02,22,00,37,3.10
2011,02,22,00,38,3.10
2011,02,22,00,39,3.10
2011,02,22,00,40,3.10
2011,02,22,00,41,3.10
2011,02,22,00,42,3.20
2011,02,22,00,43,3.20
2011,02,22,00,44,3.20
2011,02,22,00,45,3.20
2011,02,22,00,46,3.20
2011,02,22,00,47,3.30
2011,02,22,00,48,3.30
2011,02,22,00,49,3.30
2011,02,22,00,50,3.30
2011,02,22,00,51,3.30
2011,02,22,00,52,3.30
2011,02,22,00,53,3.30
2011,02,22,00,54,3.20
2011,02,22,00,55,3.20
2011,02,22,00,56,3.20
2011,02,22,00,57,3.30
2011,02,22,00,58,3.30
2011,02,22,00,59,3.30
2011,02,22,01,00,3.30
2011,02,22,01,01,3.30
2011,02,22,01,02,3.30
2011,02,22,01,03,3.30
2011,02,22,01,04,3.30
2011,02,22,01,05,3.30
2011,02,22,01,06,3.30
2011,02,22,01,07,3.30
2011,02,22,01,08,3.30
2011,02,22,01,09,3.30
2011,02,22,01,10,3.30
2011,02,22,01,11,3.30
2011,02,22,01,12,3.30
2011,02,22,01,13,3.30
2011,02,22,01,14,3.30
2011,02,22,01,15,3.30
2011,02,22,01,16,3.30
2011,02,22,01,17,3.30
2011,02,22,01,18,3.30
2011,02,22,01,19,3.30
2011,02,22,01,20,3.30
2011,02,22,01,21,3.30
2011,02,22,01,22,3.30
2011,02,22,01,23,3.30
2011,02,22,01,24,3.30
2011,02,22,01,25,3.20
2011,02,22,01,26,3.20
2011,02,22,01,27,3.20
2011,02,22,01,28,3.10
2011,02,22,01,29,3.10
2011,02,22,01,30,3.10
2011,02,22,01,31,3.10
2011,02,22,01,32,3.10
2011,02,22,01,33,3.10
2011,02,22,01,34,3.10
2011,02,22,01,35,3.10
2011,02,22,01,36,3.10
2011,02,22,01,37,3.10
2011,02,22,01,38,3.10
2011,02,22,01,39,3.10
2011,02,22,01,40,3.10
2011,02,22,01,41,3.10
2011,02,22,01,42,3.10
2011,02,22,01,43,3.10
2011,02,22,01,44,3.10
2011,02,22,01,45,3.10
2011,02,22,01,46,3.10
2011,02,22,01,47,3.10
2011,02,22,01,48,3.10
2011,02,22,01,49,3.10
2011,02,22,01,50,3.10
2011,02,22,01,51,3.10
2011,02,22,01,52,3.10
2011,02,22,01,53,3.10
2011,02,22,01,54,3.10
2011,02,22,01,55,3.10
2011,02,22,01,56,3.10
2011,02,22,01,57,3.10
2011,02,22,01,58,3.10
2011,02,22,01,59,3.10
2011,02,22,02,00,3.10
2011,02,22,02,01,3.10
2011,02,22,02,02,3.10
2011,02,22,02,03,3.10
2011,02,22,02,04,3.10
2011,02,22,02,05,3.10
2011,02,22,02,06,3.10
2011,02,22,02,07,3.10
2011,02,22,02,08,3.10
2011,02,22,02,09,3.10
2011,02,22,02,10,3.10
2011,02,22,02,11,3.10
2011,02,22,02,12,3.10
2011,02,22,02,13,3.10
2011,02,22,02,14,3.10
2011,02,22,02,15,3.10
2011,02,22,02,16,3.10
2011,02,22,02,17,3.10
2011,02,22,02,18,3.10
2011,02,22,02,19,3.10
2011,02,22,02,20,3.10
2011,02,22,02,21,3.00
2011,02,22,02,22,2.90
2011,02,22,02,23,2.90
2011,02,22,02,24,2.90
2011,02,22,02,25,2.90
2011,02,22,02,26,2.90
2011,02,22,02,27,2.90
2011,02,22,02,28,2.90
2011,02,22,02,29,2.90
2011,02,22,02,30,2.90
2011,02,22,02,31,2.90
2011,02,22,02,32,2.90
2011,02,22,02,33,2.90
2011,02,22,02,34,2.90
2011,02,22,02,35,2.90
2011,02,22,02,36,2.90
2011,02,22,02,37,2.90
2011,02,22,02,38,2.90
2011,02,22,02,39,2.90
2011,02,22,02,40,2.90
2011,02,22,02,41,2.90
2011,02,22,02,42,2.90
2011,02,22,02,43,2.90
2011,02,22,02,44,2.90
2011,02,22,02,45,2.90
2011,02,22,02,46,2.90
2011,02,22,02,47,2.90
2011,02,22,02,48,2.90
2011,02,22,02,49,2.90
2011,02,22,02,50,2.90
2011,02,22,02,51,2.90
2011,02,22,02,52,2.90
2011,02,22,02,53,2.90
2011,02,22,02,54,2.90
2011,02,22,02,55,2.90
2011,02,22,02,56,2.90
2011,02,22,02,57,2.90
2011,02,22,02,58,2.80
2011,02,22,02,59,2.80
2011,02,22,03,00,2.80
2011,02,22,03,01,2.80
2011,02,22,03,02,2.80
2011,02,22,03,03,2.80
2011,02,22,03,04,2.80
2011,02,22,03,05,2.70
2011,02,22,03,06,2.70
2011,02,22,03,07,2.70
2011,02,22,03,08,2.70
2011,02,22,03,09,2.70
2011,02,22,03,10,2.70
2011,02,22,03,11,2.70
2011,02,22,03,12,2.70
2011,02,22,03,13,2.70
2011,02,22,03,14,2.70
2011,02,22,03,15,2.70
2011,02,22,03,16,2.70
2011,02,22,03,17,2.60
2011,02,22,03,18,2.60
2011,02,22,03,19,2.60
2011,02,22,03,20,2.60
2011,02,22,03,21,2.60
2011,02,22,03,22,2.60
2011,02,22,03,23,2.60
2011,02,22,03,24,2.60
2011,02,22,03,25,2.60
2011,02,22,03,26,2.60
2011,02,22,03,27,2.60
2011,02,22,03,28,2.60
2011,02,22,03,29,2.60
2011,02,22,03,30,2.60
2011,02,22,03,31,2.60
2011,02,22,03,32,2.60
2011,02,22,03,33,2.60
2011,02,22,03,34,2.60
2011,02,22,03,35,2.60
2011,02,22,03,36,2.60
2011,02,22,03,37,2.50
2011,02,22,03,38,2.50
2011,02,22,03,39,2.50
2011,02,22,03,40,2.50
2011,02,22,03,41,2.50
2011,02,22,03,42,2.40
2011,02,22,03,43,2.40
2011,02,22,03,44,2.30
2011,02,22,03,45,2.20
2011,02,22,03,46,2.20
2011,02,22,03,47,2.10
2011,02,22,03,48,2.00
2011,02,22,03,49,1.90
2011,02,22,03,50,1.90
2011,02,22,03,51,1.80
2011,02,22,03,52,1.80
2011,02,22,03,53,1.70
2011,02,22,03,54,1.70
2011,02,22,03,55,1.70
2011,02,22,03,56,1.60
2011,02,22,03,57,1.60
2011,02,22,03,58,1.60
2011,02,22,03,59,1.50
2011,02,22,04,00,1.50
2011,02,22,04,01,1.50
2011,02,22,04,02,1.50
2011,02,22,04,03,1.50
2011,02,22,04,04,1.50
2011,02,22,04,05,1.50
2011,02,22,04,06,1.50
2011,02,22,04,07,1.50
2011,02,22,04,08,1.50
2011,02,22,04,09,1.50
2011,02,22,04,10,1.60
2011,02,22,04,11,1.60
2011,02,22,04,12,1.60
2011,02,22,04,13,1.70
2011,02,22,04,14,1.70
2011,02,22,04,15,1.70
2011,02,22,04,16,1.80
2011,02,22,04,17,1.80
2011,02,22,04,18,1.80
2011,02,22,04,19,1.80
2011,02,22,04,20,1.80
2011,02,22,04,21,1.80
2011,02,22,04,22,1.80
2011,02,22,04,23,1.80
2011,02,22,04,24,1.80
2011,02,22,04,25,1.80
2011,02,22,04,26,1.80
2011,02,22,04,27,1.80
2011,02,22,04,28,1.80
2011,02,22,04,29,1.80
2011,02,22,04,30,1.80
2011,02,22,04,31,1.80
2011,02,22,04,32,1.70
2011,02,22,04,33,1.60
2011,02,22,04,34,1.60
2011,02,22,04,35,1.50
2011,02,22,04,36,1.40
2011,02,22,04,37,1.40
2011,02,22,04,38,1.40
2011,02,22,04,39,1.30
2011,02,22,04,40,1.30
2011,02,22,04,41,1.30
2011,02,22,04,42,1.30
2011,02,22,04,43,1.30
2011,02,22,04,44,1.20
2011,02,22,04,45,1.20
2011,02,22,04,46,1.20
2011,02,22,04,47,1.10
2011,02,22,04,48,1.10
2011,02,22,04,49,1.10
2011,02,22,04,50,1.10
2011,02,22,04,51,1.00
2011,02,22,04,52,1.00
2011,02,22,04,53,1.00
2011,02,22,04,54,1.00
2011,02,22,04,55,1.00
2011,02,22,04,56,1.00
2011,02,22,04,57,0.90
2011,02,22,04,58,0.90
2011,02,22,04,59,0.90
2011,02,22,05,00,0.90
2011,02,22,05,01,0.80
2011,02,22,05,02,0.80
2011,02,22,05,03,0.80
2011,02,22,05,04,0.80
2011,02,22,05,05,0.80
2011,02,22,05,06,0.80
2011,02,22,05,07,0.80
2011,02,22,05,08,0.80
2011,02,22,05,09,0.80
2011,02,22,05,10,0.90
2011,02,22,05,11,1.00
2011,02,22,05,12,1.10
2011,02,22,05,13,1.20
2011,02,22,05,14,1.30
2011,02,22,05,15,1.40
2011,02,22,05,16,1.50
2011,02,22,05,17,1.50
2011,02,22,05,18,1.50
2011,02,22,05,19,1.60
2011,02,22,05,20,1.70
2011,02,22,05,21,1.80
2011,02,22,05,22,1.80
2011,02,22,05,23,1.80
2011,02,22,05,24,1.80
2011,02,22,05,25,1.80
2011,02,22,05,26,1.80
2011,02,22,05,27,1.80
2011,02,22,05,28,1.80
2011,02,22,05,29,1.70
2011,02,22,05,30,1.60
2011,02,22,05,31,1.60
2011,02,22,05,32,1.50
2011,02,22,05,33,1.40
2011,02,22,05,34,1.30
2011,02,22,05,35,1.30
2011,02,22,05,36,1.30
2011,02,22,05,37,1.30
2011,02,22,05,38,1.30
2011,02,22,05,39,1.30
2011,02,22,05,40,1.30
2011,02,22,05,41,1.30
2011,02,22,05,42,1.30
2011,02,22,05,43,1.20
2011,02,22,05,44,1.00
2011,02,22,05,45,0.80
2011,02,22,05,46,0.70
2011,02,22,05,47,0.50
2011,02,22,05,48,0.40
2011,02,22,05,49,0.30
2011,02,22,05,50,0.30
2011,02,22,05,51,0.20
2011,02,22,05,52,0.10
2011,02,22,05,53,0.10
2011,02,22,05,54,0.00
2011,02,22,05,55,-0.10
2011,02,22,05,56,-0.10
2011,02,22,05,57,-0.10
2011,02,22,05,58,-0.10
2011,02,22,05,59,-0.10
2011,02,22,06,00,-0.10
2011,02,22,06,01,-0.10
2011,02,22,06,02,0.00
2011,02,22,06,03,0.10
2011,02,22,06,04,0.10
2011,02,22,06,05,0.10
2011,02,22,06,06,0.20
2011,02,22,06,07,0.30
2011,02,22,06,08,0.40
2011,02,22,06,09,0.50
2011,02,22,06,10,0.60
2011,02,22,06,11,0.70
2011,02,22,06,12,0.80
2011,02,22,06,13,0.90
2011,02,22,06,14,1.10
2011,02,22,06,15,1.20
2011,02,22,06,16,1.30
2011,02,22,06,17,1.40
2011,02,22,06,18,1.60
2011,02,22,06,19,1.70
2011,02,22,06,20,1.70
2011,02,22,06,21,1.80
2011,02,22,06,22,1.70
2011,02,22,06,23,1.40
2011,02,22,06,24,1.30
2011,02,22,06,25,1.10
2011,02,22,06,26,1.00
2011,02,22,06,27,1.00
2011,02,22,06,28,0.80
2011,02,22,06,29,0.60
2011,02,22,06,30,0.50
2011,02,22,06,31,0.40
2011,02,22,06,32,0.40
2011,02,22,06,33,0.40
2011,02,22,06,34,0.30
2011,02,22,06,35,0.30
2011,02,22,06,36,0.30
2011,02,22,06,37,0.20
2011,02,22,06,38,0.20
2011,02,22,06,39,0.10
2011,02,22,06,40,0.10
2011,02,22,06,41,0.00
2011,02,22,06,42,-0.10
2011,02,22,06,43,-0.10
2011,02,22,06,44,-0.10
2011,02,22,06,45,-0.20
2011,02,22,06,46,-0.30
2011,02,22,06,47,-0.30
2011,02,22,06,48,-0.40
2011,02,22,06,49,-0.40
2011,02,22,06,50,-0.40
2011,02,22,06,51,-0.40
2011,02,22,06,52,-0.40
2011,02,22,06,53,-0.40
2011,02,22,06,54,-0.40
2011,02,22,06,55,-0.40
2011,02,22,06,56,-0.40
2011,02,22,06,57,-0.40
2011,02,22,06,58,-0.40
2011,02,22,06,59,-0.40
2011,02,22,07,00,-0.40
2011,02,22,07,01,-0.40
2011,02,22,07,02,-0.40
2011,02,22,07,03,-0.40
2011,02,22,07,04,-0.30
2011,02,22,07,05,-0.20
2011,02,22,07,06,0.00
2011,02,22,07,07,0.10
2011,02,22,07,08,0.20
2011,02,22,07,09,0.30
2011,02,22,07,10,0.40
2011,02,22,07,11,0.40
2011,02,22,07,12,0.40
2011,02,22,07,13,0.40
2011,02,22,07,14,0.40
2011,02,22,07,15,0.40
2011,02,22,07,16,0.40
2011,02,22,07,17,0.40
2011,02,22,07,18,0.40
2011,02,22,07,19,0.40
2011,02,22,07,20,0.40
2011,02,22,07,21,0.40
2011,02,22,07,22,0.40
2011,02,22,07,23,0.40
2011,02,22,07,24,0.40
2011,02,22,07,25,0.40
2011,02,22,07,26,0.40
2011,02,22,07,27,0.40
2011,02,22,07,28,0.40
2011,02,22,07,29,0.40
2011,02,22,07,30,0.40
2011,02,22,07,31,0.40
2011,02,22,07,32,0.40
2011,02,22,07,33,0.40
2011,02,22,07,34,0.40
2011,02,22,07,35,0.40
2011,02,22,07,36,0.40
2011,02,22,07,37,0.40
2011,02,22,07,38,0.40
2011,02,22,07,39,0.40
2011,02,22,07,40,0.40
2011,02,22,07,41,0.40
2011,02,22,07,42,0.40
2011,02,22,07,43,0.40
2011,02,22,07,44,0.40
2011,02,22,07,45,0.30
2011,02,22,07,46,0.20
2011,02,22,07,47,0.10
2011,02,22,07,48,0.10
2011,02,22,07,49,0.10
2011,02,22,07,50,0.10
2011,02,22,07,51,0.00
2011,02,22,07,52,-0.10
2011,02,22,07,53,-0.10
2011,02,22,07,54,-0.10
2011,02,22,07,55,0.00
2011,02,22,07,56,0.10
2011,02,22,07,57,0.10
2011,02,22,07,58,0.10
2011,02,22,07,59,0.10
2011,02,22,08,00,0.10
2011,02,22,08,01,0.10
2011,02,22,08,02,0.20
2011,02,22,08,03,0.20
2011,02,22,08,04,0.20
2011,02,22,08,05,0.30
2011,02,22,08,06,0.30
2011,02,22,08,07,0.40
2011,02,22,08,08,0.40
2011,02,22,08,09,0.50
2011,02,22,08,10,0.50
2011,02,22,08,11,0.60
2011,02,22,08,12,0.60
2011,02,22,08,13,0.70
2011,02,22,08,14,0.70
2011,02,22,08,15,0.70
2011,02,22,08,16,0.80
2011,02,22,08,17,0.80
2011,02,22,08,18,0.80
2011,02,22,08,19,0.80
2011,02,22,08,20,0.90
2011,02,22,08,21,0.90
2011,02,22,08,22,0.90
2011,02,22,08,23,0.90
2011,02,22,08,24,1.00
2011,02,22,08,25,1.00
2011,02,22,08,26,1.10
2011,02,22,08,27,1.10
2011,02,22,08,28,1.10
2011,02,22,08,29,1.20
2011,02,22,08,30,1.20
2011,02,22,08,31,1.20
2011,02,22,08,32,1.30
2011,02,22,08,33,1.30
2011,02,22,08,34,1.30
2011,02,22,08,35,1.30
2011,02,22,08,36,1.40
2011,02,22,08,37,1.50
2011,02,22,08,38,1.50
2011,02,22,08,39,1.60
2011,02,22,08,40,1.70
2011,02,22,08,41,1.70
2011,02,22,08,42,1.80
2011,02,22,08,43,1.90
2011,02,22,08,44,1.90
2011,02,22,08,45,2.00
2011,02,22,08,46,2.10
2011,02,22,08,47,2.20
2011,02,22,08,48,2.20
2011,02,22,08,49,2.40
2011,02,22,08,50,2.40
2011,02,22,08,51,2.50
2011,02,22,08,52,2.60
2011,02,22,08,53,2.70
2011,02,22,08,54,2.70
2011,02,22,08,55,2.80
2011,02,22,08,56,2.90
2011,02,22,08,57,2.90
2011,02,22,08,58,2.90
2011,02,22,08,59,3.00
2011,02,22,09,00,3.10
2011,02,22,09,01,3.10
2011,02,22,09,02,3.10
2011,02,22,09,03,3.20
2011,02,22,09,04,3.30
2011,02,22,09,05,3.30
2011,02,22,09,06,3.40
2011,02,22,09,07,3.50
2011,02,22,09,08,3.50
2011,02,22,09,09,3.60
2011,02,22,09,10,3.60
2011,02,22,09,11,3.70
2011,02,22,09,12,3.80
2011,02,22,09,13,3.80
2011,02,22,09,14,3.90
2011,02,22,09,15,3.90
2011,02,22,09,16,3.90
2011,02,22,09,17,4.00
2011,02,22,09,18,4.00
2011,02,22,09,19,4.00
2011,02,22,09,20,4.10
2011,02,22,09,21,4.10
2011,02,22,09,22,4.10
2011,02,22,09,23,4.10
2011,02,22,09,24,4.10
2011,02,22,09,25,4.10
2011,02,22,09,26,4.10
2011,02,22,09,27,4.10
2011,02,22,09,28,4.20
2011,02,22,09,29,4.20
2011,02,22,09,30,4.30
2011,02,22,09,31,4.40
2011,02,22,09,32,4.50
2011,02,22,09,33,4.50
2011,02,22,09,34,4.60
2011,02,22,09,35,4.60
2011,02,22,09,36,4.60
2011,02,22,09,37,4.60
2011,02,22,09,38,4.60
2011,02,22,09,39,4.60
2011,02,22,09,40,4.60
2011,02,22,09,41,4.60
2011,02,22,09,42,4.60
2011,02,22,09,43,4.60
2011,02,22,09,44,4.60
2011,02,22,09,45,4.60
2011,02,22,09,46,4.60
2011,02,22,09,47,4.60
2011,02,22,09,48,4.50
2011,02,22,09,49,4.40
2011,02,22,09,50,4.40
2011,02,22,09,51,4.40
2011,02,22,09,52,4.40
2011,02,22,09,53,4.40
2011,02,22,09,54,4.40
2011,02,22,09,55,4.50
2011,02,22,09,56,4.50
2011,02,22,09,57,4.50
2011,02,22,09,58,4.50
2011,02,22,09,59,4.60
2011,02,22,10,00,4.60
2011,02,22,10,01,4.60
2011,02,22,10,02,4.60
2011,02,22,10,03,4.60
2011,02,22,10,04,4.60
2011,02,22,10,05,4.60
2011,02,22,10,06,4.60
2011,02,22,10,07,4.50
2011,02,22,10,08,4.50
2011,02,22,10,09,4.50
2011,02,22,10,10,4.50
2011,02,22,10,11,4.50
2011,02,22,10,12,4.60
2011,02,22,10,13,4.60
2011,02,22,10,14,4.70
2011,02,22,10,15,4.80
2011,02,22,10,16,4.80
2011,02,22,10,17,4.80
2011,02,22,10,18,4.90
2011,02,22,10,19,4.90
2011,02,22,10,20,4.90
2011,02,22,10,21,4.90
2011,02,22,10,22,4.90
2011,02,22,10,23,4.90
2011,02,22,10,24,4.90
2011,02,22,10,25,4.90
2011,02,22,10,26,4.90
2011,02,22,10,27,4.90
2011,02,22,10,28,4.90
2011,02,22,10,29,5.10
2011,02,22,10,30,5.10
2011,02,22,10,31,5.10
2011,02,22,10,32,5.10
2011,02,22,10,33,5.10
2011,02,22,10,34,5.10
2011,02,22,10,35,5.10
2011,02,22,10,36,5.10
2011,02,22,10,37,5.10
2011,02,22,10,38,5.20
2011,02,22,10,39,5.30
2011,02,22,10,40,5.30
2011,02,22,10,41,5.30
2011,02,22,10,42,5.40
2011,02,22,10,43,5.50
2011,02,22,10,44,5.50
2011,02,22,10,45,5.60
2011,02,22,10,46,5.60
2011,02,22,10,47,5.60
2011,02,22,10,48,5.60
2011,02,22,10,49,5.70
2011,02,22,10,50,5.70
2011,02,22,10,51,5.90
2011,02,22,10,52,5.90
2011,02,22,10,53,6.00
2011,02,22,10,54,6.00
2011,02,22,10,55,6.00
2011,02,22,10,56,6.10
2011,02,22,10,57,6.10
2011,02,22,10,58,6.20
2011,02,22,10,59,6.20
2011,02,22,11,00,6.20
2011,02,22,11,01,6.20
2011,02,22,11,02,6.20
2011,02,22,11,03,6.20
2011,02,22,11,04,6.20
2011,02,22,11,05,6.20
2011,02,22,11,06,6.20
2011,02,22,11,07,6.20
2011,02,22,11,08,6.10
2011,02,22,11,09,6.10
2011,02,22,11,10,6.00
2011,02,22,11,11,6.00
2011,02,22,11,12,6.00
2011,02,22,11,13,6.00
2011,02,22,11,14,5.90
2011,02,22,11,15,5.70
2011,02,22,11,16,5.50
2011,02,22,11,17,5.40
2011,02,22,11,18,5.30
2011,02,22,11,19,5.20
2011,02,22,11,20,5.20
2011,02,22,11,21,5.10
2011,02,22,11,22,5.10
2011,02,22,11,23,5.10
2011,02,22,11,24,5.10
2011,02,22,11,25,5.00
2011,02,22,11,26,4.90
2011,02,22,11,27,4.90
2011,02,22,11,28,4.90
2011,02,22,11,29,4.90
2011,02,22,11,30,4.90
2011,02,22,11,31,4.90
2011,02,22,11,32,4.90
2011,02,22,11,33,4.90
2011,02,22,11,34,4.90
2011,02,22,11,35,4.90
2011,02,22,11,36,4.90
2011,02,22,11,37,4.90
2011,02,22,11,38,4.90
2011,02,22,11,39,4.90
2011,02,22,11,40,4.90
2011,02,22,11,41,4.90
2011,02,22,11,42,4.90
2011,02,22,11,43,4.90
2011,02,22,11,44,4.90
2011,02,22,11,45,4.90
2011,02,22,11,46,4.90
2011,02,22,11,47,4.90
2011,02,22,11,48,4.90
2011,02,22,11,49,4.90
2011,02,22,11,50,4.90
2011,02,22,11,51,4.90
2011,02,22,11,52,4.90
2011,02,22,11,53,4.90
2011,02,22,11,54,4.90
2011,02,22,11,55,4.90
2011,02,22,11,56,4.90
2011,02,22,11,57,4.90
2011,02,22,11,58,4.90
2011,02,22,11,59,4.90
2011,02,22,12,00,4.90
2011,02,22,12,01,4.90
2011,02,22,12,02,4.90
2011,02,22,12,03,4.90
2011,02,22,12,04,4.90
2011,02,22,12,05,4.90
2011,02,22,12,06,4.90
2011,02,22,12,07,4.90
2011,02,22,12,08,4.90
2011,02,22,12,09,4.90
2011,02,22,12,10,4.90
2011,02,22,12,11,4.90
2011,02,22,12,12,4.90
2011,02,22,12,13,4.90
2011,02,22,12,14,4.90
2011,02,22,12,15,4.90
2011,02,22,12,16,4.90
2011,02,22,12,17,4.90
2011,02,22,12,18,4.90
2011,02,22,12,19,4.80
2011,02,22,12,20,4.80
2011,02,22,12,21,4.80
2011,02,22,12,22,4.80
2011,02,22,12,23,4.80
2011,02,22,12,24,4.80
2011,02,22,12,25,4.70
2011,02,22,12,26,4.70
2011,02,22,12,27,4.60
2011,02,22,12,28,4.60
2011,02,22,12,29,4.60
2011,02,22,12,30,4.50
2011,02,22,12,31,4.50
2011,02,22,12,32,4.50
2011,02,22,12,33,4.50
2011,02,22,12,34,4.50
2011,02,22,12,35,4.50
2011,02,22,12,36,4.50
2011,02,22,12,37,4.50
2011,02,22,12,38,4.60
2011,02,22,12,39,4.60
2011,02,22,12,40,4.60
2011,02,22,12,41,4.60
2011,02,22,12,42,4.70
2011,02,22,12,43,4.70
2011,02,22,12,44,4.70
2011,02,22,12,45,4.80
2011,02,22,12,46,4.80
2011,02,22,12,47,4.70
2011,02,22,12,48,4.60
2011,02,22,12,49,4.40
2011,02,22,12,50,4.20
2011,02,22,12,51,4.10
2011,02,22,12,52,4.00
2011,02,22,12,53,3.90
2011,02,22,12,54,3.90
2011,02,22,12,55,3.90
2011,02,22,12,56,3.90
2011,02,22,12,57,3.90
2011,02,22,12,58,4.00
2011,02,22,12,59,4.00
2011,02,22,13,00,4.00
2011,02,22,13,01,4.00
2011,02,22,13,02,4.10
2011,02,22,13,03,4.10
2011,02,22,13,04,4.10
2011,02,22,13,05,4.10
2011,02,22,13,06,4.10
2011,02,22,13,07,4.20
2011,02,22,13,08,4.20
2011,02,22,13,09,4.20
2011,02,22,13,10,4.10
2011,02,22,13,11,4.10
2011,02,22,13,12,4.10
2011,02,22,13,13,4.10
2011,02,22,13,14,4.10
2011,02,22,13,15,4.00
2011,02,22,13,16,4.00
2011,02,22,13,17,3.90
2011,02,22,13,18,3.90
2011,02,22,13,19,3.80
2011,02,22,13,20,3.80
2011,02,22,13,21,3.80
2011,02,22,13,22,3.90
2011,02,22,13,23,3.80
2011,02,22,13,24,3.80
2011,02,22,13,25,3.80
2011,02,22,13,26,3.80
2011,02,22,13,27,3.80
2011,02,22,13,28,3.80
2011,02,22,13,29,3.80
2011,02,22,13,30,3.80
2011,02,22,13,31,3.80
2011,02,22,13,32,3.80
2011,02,22,13,33,3.90
2011,02,22,13,34,3.90
2011,02,22,13,35,4.00
2011,02,22,13,36,4.00
2011,02,22,13,37,4.00
2011,02,22,13,38,4.00
2011,02,22,13,39,4.10
2011,02,22,13,40,4.20
2011,02,22,13,41,4.30
2011,02,22,13,42,4.40
2011,02,22,13,43,4.50
2011,02,22,13,44,4.50
2011,02,22,13,45,4.50
2011,02,22,13,46,4.50
2011,02,22,13,47,4.60
2011,02,22,13,48,4.60
2011,02,22,13,49,4.60
2011,02,22,13,50,4.60
2011,02,22,13,51,4.70
2011,02,22,13,52,4.70
2011,02,22,13,53,4.70
2011,02,22,13,54,4.80
2011,02,22,13,55,4.80
2011,02,22,13,56,4.90
2011,02,22,13,57,4.90
2011,02,22,13,58,5.00
2011,02,22,13,59,5.10
2011,02,22,14,00,5.10
2011,02,22,14,01,5.10
2011,02,22,14,02,5.00
2011,02,22,14,03,4.90
2011,02,22,14,04,4.80
2011,02,22,14,05,4.70
2011,02,22,14,06,4.60
2011,02,22,14,07,4.60
2011,02,22,14,08,4.60
2011,02,22,14,09,4.50
2011,02,22,14,10,4.50
2011,02,22,14,11,4.40
2011,02,22,14,12,4.30
2011,02,22,14,13,4.30
2011,02,22,14,14,4.30
2011,02,22,14,15,4.30
2011,02,22,14,16,4.20
2011,02,22,14,17,4.30
2011,02,22,14,18,4.30
2011,02,22,14,19,4.30
2011,02,22,14,20,4.30
2011,02,22,14,21,4.20
2011,02,22,14,22,4.20
2011,02,22,14,23,4.20
2011,02,22,14,24,4.10
2011,02,22,14,25,4.10
2011,02,22,14,26,4.00
2011,02,22,14,27,4.00
2011,02,22,14,28,4.10
2011,02,22,14,29,4.10
2011,02,22,14,30,4.00
2011,02,22,14,31,4.00
2011,02,22,14,32,4.00
2011,02,22,14,33,4.00
2011,02,22,14,34,4.00
2011,02,22,14,35,4.00
2011,02,22,14,36,4.00
2011,02,22,14,37,4.00
2011,02,22,14,38,4.00
2011,02,22,14,39,3.90
2011,02,22,14,40,3.80
2011,02,22,14,41,3.80
2011,02,22,14,42,3.80
2011,02,22,14,43,3.80
2011,02,22,14,44,3.70
2011,02,22,14,45,3.60
2011,02,22,14,46,3.50
2011,02,22,14,47,3.50
2011,02,22,14,48,3.50
2011,02,22,14,49,3.50
2011,02,22,14,50,3.50
2011,02,22,14,51,3.50
2011,02,22,14,52,3.50
2011,02,22,14,53,3.60
2011,02,22,14,54,3.60
2011,02,22,14,55,3.60
2011,02,22,14,56,3.60
2011,02,22,14,57,3.70
2011,02,22,14,58,3.70
2011,02,22,14,59,3.70
2011,02,22,15,00,3.70
2011,02,22,15,01,3.70
2011,02,22,15,02,3.70
2011,02,22,15,03,3.70
2011,02,22,15,04,3.70
2011,02,22,15,05,3.70
2011,02,22,15,06,3.80
2011,02,22,15,07,3.80
2011,02,22,15,08,3.80
2011,02,22,15,09,3.80
2011,02,22,15,10,3.80
2011,02,22,15,11,3.80
2011,02,22,15,12,3.70
2011,02,22,15,13,3.70
2011,02,22,15,14,3.60
2011,02,22,15,15,3.60
2011,02,22,15,16,3.60
2011,02,22,15,17,3.50
2011,02,22,15,18,3.50
2011,02,22,15,19,3.50
2011,02,22,15,20,3.50
2011,02,22,15,21,3.40
2011,02,22,15,22,3.40
2011,02,22,15,23,3.40
2011,02,22,15,24,3.40
2011,02,22,15,25,3.40
2011,02,22,15,26,3.40
2011,02,22,15,27,3.40
2011,02,22,15,28,3.50
2011,02,22,15,29,3.50
2011,02,22,15,30,3.50
2011,02,22,15,31,3.60
2011,02,22,15,32,3.60
2011,02,22,15,33,3.60
2011,02,22,15,34,3.60
2011,02,22,15,35,3.60
2011,02,22,15,36,3.70
2011,02,22,15,37,3.70
2011,02,22,15,38,3.80
2011,02,22,15,39,3.80
2011,02,22,15,40,3.80
2011,02,22,15,41,3.80
2011,02,22,15,42,3.80
2011,02,22,15,43,3.90
2011,02,22,15,44,3.90
2011,02,22,15,45,3.90
2011,02,22,15,46,3.90
2011,02,22,15,47,3.90
2011,02,22,15,48,3.90
2011,02,22,15,49,3.90
2011,02,22,15,50,3.90
2011,02,22,15,51,3.90
2011,02,22,15,52,3.90
2011,02,22,15,53,3.90
2011,02,22,15,54,3.90
2011,02,22,15,55,3.90
2011,02,22,15,56,3.90
2011,02,22,15,57,3.90
2011,02,22,15,58,3.80
2011,02,22,15,59,3.70
2011,02,22,16,00,3.70
2011,02,22,16,01,3.60
2011,02,22,16,02,3.60
2011,02,22,16,03,3.60
2011,02,22,16,04,3.50
2011,02,22,16,05,3.50
2011,02,22,16,06,3.50
2011,02,22,16,07,3.40
2011,02,22,16,08,3.40
2011,02,22,16,09,3.40
2011,02,22,16,10,3.30
2011,02,22,16,11,3.30
2011,02,22,16,12,3.30
2011,02,22,16,13,3.20
2011,02,22,16,14,3.20
2011,02,22,16,15,3.20
2011,02,22,16,16,3.20
2011,02,22,16,17,3.20
2011,02,22,16,18,3.20
2011,02,22,16,19,3.20
2011,02,22,16,20,3.20
2011,02,22,16,21,3.20
2011,02,22,16,22,3.20
2011,02,22,16,23,3.30
2011,02,22,16,24,3.30
2011,02,22,16,25,3.30
2011,02,22,16,26,3.30
2011,02,22,16,27,3.30
2011,02,22,16,28,3.30
2011,02,22,16,29,3.30
2011,02,22,16,30,3.30
2011,02,22,16,31,3.30
2011,02,22,16,32,3.40
2011,02,22,16,33,3.40
2011,02,22,16,34,3.40
2011,02,22,16,35,3.40
2011,02,22,16,36,3.40
2011,02,22,16,37,3.40
2011,02,22,16,38,3.40
2011,02,22,16,39,3.40
2011,02,22,16,40,3.50
2011,02,22,16,41,3.50
2011,02,22,16,42,3.50
2011,02,22,16,43,3.60
2011,02,22,16,44,3.60
2011,02,22,16,45,3.60
2011,02,22,16,46,3.60
2011,02,22,16,47,3.60
2011,02,22,16,48,3.60
2011,02,22,16,49,3.50
2011,02,22,16,50,3.50
2011,02,22,16,51,3.50
2011,02,22,16,52,3.50
2011,02,22,16,53,3.40
2011,02,22,16,54,3.40
2011,02,22,16,55,3.40
2011,02,22,16,56,3.40
2011,02,22,16,57,3.30
2011,02,22,16,58,3.30
2011,02,22,16,59,3.30
2011,02,22,17,00,3.30
2011,02,22,17,01,3.30
2011,02,22,17,02,3.30
2011,02,22,17,03,3.30
2011,02,22,17,04,3.30
2011,02,22,17,05,3.40
2011,02,22,17,06,3.40
2011,02,22,17,07,3.50
2011,02,22,17,08,3.50
2011,02,22,17,09,3.50
2011,02,22,17,10,3.60
2011,02,22,17,11,3.60
2011,02,22,17,12,3.60
2011,02,22,17,13,3.70
2011,02,22,17,14,3.70
2011,02,22,17,15,3.70
2011,02,22,17,16,3.70
2011,02,22,17,17,3.70
2011,02,22,17,18,3.80
2011,02,22,17,19,3.80
2011,02,22,17,20,3.80
2011,02,22,17,21,3.80
2011,02,22,17,22,3.80
2011,02,22,17,23,3.80
2011,02,22,17,24,3.80
2011,02,22,17,25,3.90
2011,02,22,17,26,3.90
2011,02,22,17,27,4.00
2011,02,22,17,28,4.00
2011,02,22,17,29,4.00
2011,02,22,17,30,4.00
2011,02,22,17,31,4.00
2011,02,22,17,32,4.10
2011,02,22,17,33,4.10
2011,02,22,17,34,4.10
2011,02,22,17,35,4.00
2011,02,22,17,36,4.00
2011,02,22,17,37,3.90
2011,02,22,17,38,3.80
2011,02,22,17,39,3.80
2011,02,22,17,40,3.80
2011,02,22,17,41,3.70
2011,02,22,17,42,3.70
2011,02,22,17,43,3.60
2011,02,22,17,44,3.60
2011,02,22,17,45,3.50
2011,02,22,17,46,3.50
2011,02,22,17,47,3.40
2011,02,22,17,48,3.40
2011,02,22,17,49,3.40
2011,02,22,17,50,3.30
2011,02,22,17,51,3.30
2011,02,22,17,52,3.30
2011,02,22,17,53,3.30
2011,02,22,17,54,3.30
2011,02,22,17,55,3.30
2011,02,22,17,56,3.30
2011,02,22,17,57,3.20
2011,02,22,17,58,3.20
2011,02,22,17,59,3.20
2011,02,22,18,00,3.20
2011,02,22,18,01,3.20
2011,02,22,18,02,3.20
2011,02,22,18,03,3.30
2011,02,22,18,04,3.30
2011,02,22,18,05,3.30